Terminal Aerodrome Forecast
Issued by NWS Upton, NY

Home | Current Version | Previous Version | Text Only | Print | Product List | Glossary On
Versions: 1 2 3 4 5 6 7 8 9 10 11 12 13 14 15 16 17 18 19 20 21 22 23 24 25 26 27 28 29 30
000
FTUS41 KOKX 281128
TAFBDR
TAF
KBDR 281128Z 2812/2912 03006KT P6SM SCT003 SCT020 BKN250
      TEMPO 2812/2814 4SM BR BKN003
     FM281400 05013G20KT P6SM OVC020
     FM281700 05014G22KT P6SM -DZ OVC015=

USA.gov is the U.S. government's official web portal to all federal, state and local government web resources and services.